Hourly Weather Holoshyna

Today, 11 April, Sunday

Time Temperature Precipitation Wind Pressure Humidity
00:00 -2°C° 0 mm 1 mps 660 mmHg 91%
01:00 -2°C° 0 mm 1 mps 660 mmHg 91%
02:00 -3°C° 0 mm 1 mps 660 mmHg 91%
03:00 -3°C° 0 mm 1 mps 660 mmHg 91%
04:00 -3°C° 0 mm 1 mps 660 mmHg 91%
05:00 -3°C° 0 mm 1 mps 660 mmHg 91%
06:00 0°C° 0 mm 1 mps 661 mmHg 85%
07:00 +2°C° 0 mm 1 mps 661 mmHg 78%
08:00 +5°C° 0 mm 1 mps 661 mmHg 72%
09:00 +6°C° 0 mm 1 mps 662 mmHg 67%
10:00 +8°C° 0 mm 1 mps 662 mmHg 62%
11:00 +9°C° 0 mm 1 mps 662 mmHg 57%
12:00 +10°C° 0 mm 1 mps 662 mmHg 55%
13:00 +11°C° 0 mm 1 mps 662 mmHg 54%
14:00 +11°C° 0 mm 1 mps 662 mmHg 52%
15:00 +11°C° 0 mm 1 mps 661 mmHg 56%
16:00 +10°C° 0 mm 1 mps 661 mmHg 60%
17:00 +10°C° 0 mm 1 mps 661 mmHg 64%
18:00 +7°C° 0 mm 1 mps 661 mmHg 73%
19:00 +4°C° 0 mm 1 mps 661 mmHg 81%
20:00 +2°C° 0 mm 1 mps 661 mmHg 89%
21:00 +1°C° 0 mm 1 mps 661 mmHg 89%
22:00 +1°C° 0 mm 1 mps 661 mmHg 89%
23:00 +1°C° 0 mm 1 mps 661 mmHg 89%

Tomorrow, 12 April, Monday

Time Temperature Precipitation Wind Pressure Humidity
00:00 0°C° 0 mm 1 mps 661 mmHg 89%
01:00 0°C° 0 mm 1 mps 661 mmHg 89%
02:00 0°C° 0 mm 1 mps 661 mmHg 88%
03:00 0°C° 0 mm 1 mps 660 mmHg 87%
04:00 0°C° 0 mm 1 mps 660 mmHg 87%
05:00 0°C° 0 mm 1 mps 660 mmHg 86%
06:00 +2°C° 0 mm 1 mps 660 mmHg 80%
07:00 +4°C° 0 mm 1 mps 661 mmHg 75%
08:00 +5°C° 0 mm 0 mps 661 mmHg 69%
09:00 +7°C° 0 mm 0 mps 661 mmHg 64%
10:00 +9°C° 0 mm 0 mps 661 mmHg 59%
11:00 +11°C° 0 mm 0 mps 661 mmHg 54%
12:00 +12°C° 0 mm 1 mps 661 mmHg 54%
13:00 +12°C° 0 mm 1 mps 661 mmHg 55%
14:00 +13°C° 0 mm 1 mps 661 mmHg 55%
15:00 +12°C° 0 mm 1 mps 660 mmHg 59%
16:00 +12°C° 0 mm 1 mps 660 mmHg 62%
17:00 +10°C° 0 mm 0 mps 660 mmHg 66%
18:00 +9°C° 0 mm 1 mps 660 mmHg 72%
19:00 +7°C° 0 mm 1 mps 659 mmHg 78%
20:00 +5°C° 0 mm 1 mps 659 mmHg 84%
21:00 +4°C° 0 mm 1 mps 659 mmHg 85%
22:00 +4°C° 0 mm 1 mps 659 mmHg 86%
23:00 +3°C° 0 mm 1 mps 659 mmHg 87%

Day after tomorrow, 13 April, Tuesday

Time Temperature Precipitation Wind Pressure Humidity
00:00 +3°C° 0 mm 1 mps 659 mmHg 87%
01:00 +3°C° 0 mm 1 mps 658 mmHg 87%
02:00 +3°C° 0 mm 1 mps 658 mmHg 87%
03:00 +3°C° 0 mm 1 mps 658 mmHg 87%
04:00 +3°C° 0 mm 1 mps 658 mmHg 87%
05:00 +3°C° 0 mm 1 mps 658 mmHg 88%
06:00 +5°C° 0 mm 1 mps 658 mmHg 82%
07:00 +7°C° 0 mm 1 mps 658 mmHg 76%
08:00 +8°C° 0 mm 0 mps 658 mmHg 71%
09:00 +10°C° 0 mm 1 mps 658 mmHg 64%
10:00 +12°C° 0 mm 1 mps 659 mmHg 58%
11:00 +13°C° 0 mm 1 mps 659 mmHg 52%
12:00 +13°C° 0 mm 2 mps 658 mmHg 50%
13:00 +14°C° 0 mm 2 mps 658 mmHg 47%
14:00 +14°C° 0 mm 2 mps 658 mmHg 45%
15:00 +12°C° 0 mm 3 mps 657 mmHg 50%
16:00 +11°C° 0 mm 3 mps 657 mmHg 55%
17:00 +10°C° 0 mm 3 mps 657 mmHg 60%
18:00 +8°C° 0 mm 3 mps 656 mmHg 66%
19:00 +6°C° 0 mm 2 mps 656 mmHg 72%
20:00 +4°C° 0 mm 2 mps 656 mmHg 78%
21:00 +5°C° 0 mm 1 mps 656 mmHg 81%
22:00 +4°C° 0 mm 1 mps 655 mmHg 84%
23:00 +3°C° 0 mm 1 mps 655 mmHg 88%

14 April, Wednesday

Time Temperature Precipitation Wind Pressure Humidity
00:00 +3°C° 0 mm 1 mps 655 mmHg 89%
01:00 +2°C° 0 mm 1 mps 654 mmHg 91%
02:00 +2°C° 0 mm 1 mps 654 mmHg 92%
03:00 +2°C° 0 mm 1 mps 654 mmHg 93%
04:00 +2°C° 0 mm 1 mps 654 mmHg 93%
05:00 +2°C° 0 mm 1 mps 654 mmHg 94%
06:00 +3°C° 0 mm 1 mps 654 mmHg 92%
07:00 +3°C° 0 mm 1 mps 654 mmHg 91%
08:00 +4°C° 0 mm 1 mps 654 mmHg 90%
09:00 +4°C° 0.1 mm 1 mps 654 mmHg 90%
10:00 +4°C° 0.1 mm 1 mps 653 mmHg 90%
11:00 +4°C° 0.1 mm 1 mps 653 mmHg 90%
12:00 +4°C° 0.3 mm 1 mps 653 mmHg 92%
13:00 +4°C° 0.3 mm 1 mps 653 mmHg 93%
14:00 +3°C° 0.3 mm 1 mps 653 mmHg 95%
15:00 +3°C° 0.3 mm 1 mps 653 mmHg 96%
16:00 +2°C° 0.3 mm 1 mps 653 mmHg 97%
17:00 +2°C° 0.3 mm 1 mps 653 mmHg 98%
18:00 +2°C° 0.5 mm 1 mps 653 mmHg 98%
19:00 +1°C° 0.5 mm 1 mps 653 mmHg 98%
20:00 +1°C° 0.5 mm 1 mps 653 mmHg 99%
21:00 +1°C° 0.5 mm 1 mps 653 mmHg 99%
22:00 +1°C° 0.5 mm 1 mps 653 mmHg 99%
23:00 0°C° 0.5 mm 1 mps 653 mmHg 99%

15 April, Thursday

Time Temperature Precipitation Wind Pressure Humidity
00:00 -1°C° 0.5 mm 0 mps 653 mmHg 99%
01:00 -1°C° 0.5 mm 0 mps 653 mmHg 99%
02:00 -1°C° 0.5 mm 0 mps 653 mmHg 99%
03:00 -1°C° 0.5 mm 0 mps 653 mmHg 99%
04:00 -1°C° 0.5 mm 0 mps 653 mmHg 99%
05:00 -1°C° 0.5 mm 0 mps 653 mmHg 99%
06:00 -1°C° 0.5 mm 0 mps 653 mmHg 99%
07:00 0°C° 0.5 mm 1 mps 653 mmHg 99%
08:00 0°C° 0.5 mm 1 mps 654 mmHg 98%
09:00 0°C° 0.4 mm 1 mps 654 mmHg 98%
10:00 +1°C° 0.4 mm 1 mps 654 mmHg 97%
11:00 +1°C° 0.4 mm 1 mps 654 mmHg 96%
12:00 +1°C° 0.3 mm 1 mps 654 mmHg 97%
13:00 +1°C° 0.3 mm 1 mps 654 mmHg 97%
14:00 +1°C° 0.3 mm 1 mps 655 mmHg 98%
15:00 +1°C° 0.5 mm 1 mps 655 mmHg 98%
16:00 +1°C° 0.5 mm 1 mps 655 mmHg 98%
17:00 0°C° 0.5 mm 1 mps 655 mmHg 99%
18:00 0°C° 0.4 mm 1 mps 655 mmHg 99%
19:00 0°C° 0.4 mm 1 mps 655 mmHg 99%
20:00 0°C° 0.4 mm 1 mps 655 mmHg 99%
21:00 -1°C° 0.2 mm 1 mps 655 mmHg 99%
22:00 -1°C° 0.2 mm 1 mps 655 mmHg 99%
23:00 -1°C° 0.2 mm 1 mps 655 mmHg 99%

16 April, Friday

Time Temperature Precipitation Wind Pressure Humidity
00:00 -1°C° 1.1 mm 1 mps 655 mmHg 99%
01:00 -1°C° 1.1 mm 1 mps 654 mmHg 98%
02:00 -1°C° 1.1 mm 1 mps 654 mmHg 98%
03:00 -2°C° 2.5 mm 1 mps 654 mmHg 98%
04:00 -2°C° 2.5 mm 1 mps 654 mmHg 98%
05:00 -2°C° 2.5 mm 1 mps 654 mmHg 98%
06:00 -2°C° 2 mm 1 mps 655 mmHg 98%
07:00 -1°C° 2 mm 1 mps 655 mmHg 98%
08:00 -1°C° 2 mm 1 mps 655 mmHg 98%
09:00 -1°C° 1.3 mm 1 mps 655 mmHg 98%
10:00 0°C° 1.3 mm 1 mps 656 mmHg 99%
11:00 0°C° 1.3 mm 1 mps 656 mmHg 99%
12:00 0°C° 0.6 mm 1 mps 657 mmHg 99%
13:00 0°C° 0.6 mm 1 mps 657 mmHg 99%
14:00 +1°C° 0.6 mm 1 mps 657 mmHg 99%
15:00 +1°C° 0.2 mm 1 mps 657 mmHg 99%
16:00 +1°C° 0.2 mm 1 mps 658 mmHg 99%
17:00 +1°C° 0.2 mm 1 mps 658 mmHg 99%
18:00 +1°C° 0.1 mm 1 mps 658 mmHg 99%
19:00 +1°C° 0.1 mm 1 mps 659 mmHg 99%
20:00 +1°C° 0.1 mm 1 mps 659 mmHg 99%
21:00 +1°C° 0.2 mm 1 mps 659 mmHg 99%
22:00 +1°C° 0.2 mm 1 mps 659 mmHg 99%
23:00 +1°C° 0.2 mm 1 mps 659 mmHg 99%
Show more